Regional Weather Roundup
Issued by NWS

Home | Current Version | Previous Version | Text Only | Print | Product List | Glossary Off
Versions: 1 2 3 4 5 6 7 8 9 10 11 12 13 14 15 16 17 18 19 20 21 22 23 24 25 26 27 28 29 30 31 32 33 34 35 36 37 38 39 40 41 42 43 44 45 46 47 48 49 50

000
ASUS43 KFSD 062302
RWRSD

WEATHER ROUNDUP FOR SOUTH DAKOTA
NATIONAL WEATHER SERVICE SIOUX FALLS SD
500 PM CST FRI MAR 06 2015

NOTE: "FAIR" INDICATES FEW OR NO CLOUDS BELOW 12,000 FEET WITH NO
SIGNIFICANT WEATHER AND/OR OBSTRUCTIONS TO VISIBILITY.


SDZ001>005-009-010-012>017-070000-
NORTHWEST AND NORTH CENTRAL SOUTH DAKOTA

CITY           SKY/WX    TMP DP  RH WIND       PRES   REMARKS
BUFFALO          N/A     55  20  25 NW26G35   29.97S
FAITH            N/A     57  16  20 NW24G35   30.01S
MOBRIDGE       PTSUNNY   53  21  28 S7        29.96F
$$

SDZ012>016-024>037-041>051-057-063-072>074-070000-
SOUTHWEST AND SOUTH CENTRAL SOUTH DAKOTA

CITY           SKY/WX    TMP DP  RH WIND       PRES   REMARKS
RAPID CTY ARPT SUNNY     56  21  25 NW17      30.07S
PIERRE         MOSUNNY   53  26  35 E9        30.02F
CUSTER         SUNNY     46  17  31 W22G31    30.12R
ELLSWORTH AFB  SUNNY     55  23  28 NW18      30.07R
PHILIP         SUNNY     59  16  18 W18G29    30.04F
PINE RIDGE     SUNNY     53  23  31 W20G28    30.11F
SPEARFISH      FAIR      50  23  34 NW17G26   30.10S
WINNER         FAIR      56  20  24 W12       30.07F
$$

SDZ004>011-016>023-039-040-070000-
NORTHEAST SOUTH DAKOTA

CITY           SKY/WX    TMP DP  RH WIND       PRES   REMARKS
ABERDEEN       CLOUDY    42  21  43 SW6       30.06F
WATERTOWN      PTSUNNY   34  23  64 W7        30.06F WCI  28
$$

SDZ017-020-022-023-036>040-048>070-070000-
SOUTHEAST SOUTH DAKOTA

CITY           SKY/WX    TMP DP  RH WIND       PRES   REMARKS
SIOUX FALLS    MOSUNNY   45  23  42 NW10      30.09F
HURON          PTSUNNY   42  21  43 CALM      30.08F
MITCHELL       SUNNY     47  20  34 CALM      30.09F
YANKTON        SUNNY     52  19  28 N8        30.10F
$$

ABBREVIATIONS USED IN REMARKS
   TC - TEMPERATURE IN CELSIUS
  WCI - WIND CHILL INDEX
   HX - HEAT INDEX
  VSB - VISIBILITY




USA.gov is the U.S. government's official web portal to all federal, state and local government web resources and services.